Amsterdam, Netherlands

6:08 PM CEST on October 23, 2019 (GMT +0200)
Schiphol

Weather History for EHAM - August, 2019

Change the Weather History Date:

Tuesday, August 20, 2019

  Actual Average Record
Temperature  
Mean Temperature 62 °F -  
Max Temperature 69 °F 66 °F 84 °F (1996)
Min Temperature 55 °F 52 °F 47 °F (2014)
Degree Days  
Heating Degree Days 3    
Growing Degree Days 12 (Base 50)    
Moisture  
Dew Point 54 °F    
Average Humidity 76    
Maximum Humidity 100    
Minimum Humidity 48    
Precipitation  
Precipitation 0.04 in - - ()
Sea Level Pressure  
Sea Level Pressure 30.15 in    
Wind  
Wind Speed 10 mph ()    
Max Wind Speed 18 mph    
Max Gust Speed -    
Visibility 7.9 miles    
Events Rain    
Averages and records for this station are not official NWS values.
T = Trace of Precipitation, MM = Missing Value Source: Averaged Metar Reports

Daily Weather History Graph

Daily Weather History Graph

Search for Another Location

Airport or City:

Astronomy

Aug. 20, 2019 Rise Set
Actual Time 6:31 AM CEST 8:55 PM CEST
Civil Twilight 5:54 AM CEST 9:33 PM CEST
Nautical Twilight 5:06 AM CEST 10:20 PM CEST
Astronomical Twilight 4:09 AM CEST 11:16 PM CEST
Moon 11:02 PM CEST (8/20) 11:25 AM CEST (8/20)
Length of Visible Light 15h 39m
Length of Day
14h 24m
Waning Gibbous, 80% of the Moon is Illuminated
Aug 20
Waning Gibbous
Aug 23
Last Quarter
Aug 30
New
Sep 6
First Quarter
Sep 14
Full

Hourly Weather History & Observations

Time (CEST) Temp. Dew Point Humidity Pressure Visibility Wind Dir Wind Speed Gust Speed Precip Events Conditions
12:25 AM 59.0 °F 55.4 °F 88% 30.04 in 5.6 mi SSW 15.0 mph - N/A Rain Light Rain Showers
12:55 AM 59.0 °F 57.2 °F 94% 30.04 in 6.2 mi SSW 10.4 mph - N/A   Partly Cloudy
1:00 AM 59 °F 56 °F 88% 30.06 in 9 mi South 11.2 mph - - Rain Rain
1:25 AM 59.0 °F 55.4 °F 88% 30.04 in 6.2 mi SSW 8.1 mph - N/A Rain Light Rain Showers
1:55 AM 59.0 °F 55.4 °F 88% 30.04 in 6.2 mi South 9.2 mph - N/A   Partly Cloudy
2:00 AM 57 °F 54 °F 87% 30.06 in 25 mi South 8.9 mph - - Rain Rain
2:25 AM 57.2 °F 55.4 °F 94% 30.06 in 6.2 mi SSW 9.2 mph - N/A   Partly Cloudy
2:55 AM 57.2 °F 53.6 °F 88% 30.06 in 6.2 mi SSW 9.2 mph - N/A   Partly Cloudy
3:25 AM 57.2 °F 55.4 °F 94% 30.06 in 6.2 mi SSW 10.4 mph - N/A   Partly Cloudy
3:55 AM 57.2 °F 55.4 °F 94% 30.06 in 6.2 mi SSW 10.4 mph - N/A   Partly Cloudy
4:00 AM 58 °F 55 °F 88% 30.07 in 8 mi SSW 8.9 mph - -   Partly Cloudy
4:25 AM 57.2 °F 55.4 °F 94% 30.06 in 6.2 mi SSW 10.4 mph - N/A   Partly Cloudy
4:55 AM 57.2 °F 55.4 °F 94% 30.06 in 6.2 mi SSW 9.2 mph - N/A   Partly Cloudy
5:00 AM 57 °F 55 °F 92% 30.08 in 7 mi South 8.9 mph - -   Partly Cloudy
5:25 AM 55.4 °F 55.4 °F 100% 30.06 in 6.2 mi SSW 9.2 mph - N/A   Partly Cloudy
5:55 AM 57.2 °F 55.4 °F 94% 30.06 in 6.2 mi SSW 10.4 mph - N/A   Partly Cloudy
6:00 AM 56 °F 55 °F 94% 30.09 in 7 mi SSW 8.9 mph - -   Partly Cloudy
6:25 AM 55.4 °F 55.4 °F 100% 30.06 in 6.2 mi SSW 10.4 mph - N/A   Partly Cloudy
6:55 AM 55.4 °F 55.4 °F 100% 30.09 in 6.2 mi SSW 9.2 mph - N/A   Partly Cloudy
7:00 AM 56 °F 55 °F 94% 30.10 in 7 mi SSW 8.9 mph - -   Partly Cloudy
7:25 AM 57.2 °F 55.4 °F 94% 30.09 in 6.2 mi SSW 9.2 mph - N/A   Partly Cloudy
7:55 AM 59.0 °F 57.2 °F 94% 30.09 in 6.2 mi SSW 9.2 mph - N/A   Partly Cloudy
8:00 AM 60 °F 57 °F 86% 30.12 in 7 mi SSW 8.9 mph - - Rain Light Rain Showers
8:25 AM 59.0 °F 57.2 °F 94% 30.12 in 6.2 mi SSW 6.9 mph - N/A   Partly Cloudy
8:55 AM 60.8 °F 57.2 °F 88% 30.12 in 6.2 mi SSW 10.4 mph - N/A   Partly Cloudy
9:00 AM 61 °F 56 °F 80% 30.14 in 11 mi SSW 11.2 mph - - Rain Rain
9:25 AM 62.6 °F 57.2 °F 82% 30.12 in 6.2 mi SSW 11.5 mph - N/A   Partly Cloudy
9:55 AM 64.4 °F 57.2 °F 77% 30.12 in 6.2 mi SSW 12.7 mph - N/A   Partly Cloudy
10:00 AM 65 °F 56 °F 64% 30.14 in 12 mi SW 13.4 mph - -   Partly Cloudy
10:25 AM 64.4 °F 53.6 °F 68% 30.12 in 6.2 mi WSW 12.7 mph - N/A   Partly Cloudy
10:55 AM 64.4 °F 51.8 °F 64% 30.15 in 6.2 mi WSW 16.1 mph - N/A   Partly Cloudy
11:25 AM 64.4 °F 53.6 °F 68% 30.15 in 6.2 mi West 16.1 mph - N/A   Partly Cloudy
11:55 AM 66.2 °F 55.4 °F 68% 30.15 in 6.2 mi WSW 17.3 mph - N/A   Partly Cloudy
12:00 PM 65 °F 54 °F 59% 30.17 in 19 mi WSW 17.9 mph - -   Partly Cloudy
12:25 PM 66.2 °F 53.6 °F 64% 30.15 in 6.2 mi West 17.3 mph - N/A   Partly Cloudy
12:55 PM 64.4 °F 51.8 °F 64% 30.15 in 6.2 mi West 15.0 mph - N/A   Partly Cloudy
1:00 PM 66 °F 52 °F 52% 30.17 in 16 mi West 15.7 mph - -   Partly Cloudy
1:25 PM 68.0 °F 55.4 °F 64% 30.15 in 6.2 mi WSW 16.1 mph - N/A   Partly Cloudy
1:55 PM 69.8 °F 55.4 °F 60% 30.15 in 6.2 mi West 16.1 mph - N/A   Partly Cloudy
2:00 PM 67 °F 53 °F 51% 30.18 in 16 mi West 17.9 mph - -   Partly Cloudy
2:25 PM 68.0 °F 53.6 °F 60% 30.18 in 6.2 mi West 15.0 mph - N/A   Partly Cloudy
2:55 PM 68.0 °F 51.8 °F 56% 30.18 in 6.2 mi West 15.0 mph - N/A   Partly Cloudy
3:00 PM 67 °F 52 °F 48% 30.19 in 19 mi West 15.7 mph - -   Partly Cloudy
3:25 PM 68.0 °F 53.6 °F 60% 30.18 in 6.2 mi WSW 16.1 mph - N/A   Partly Cloudy
3:55 PM 68.0 °F 53.6 °F 60% 30.18 in 6.2 mi West 16.1 mph - N/A   Partly Cloudy
4:00 PM 66 °F 51 °F 48% 30.20 in 17 mi West 17.9 mph - -   Partly Cloudy
4:25 PM 66.2 °F 51.8 °F 60% 30.18 in 6.2 mi West 16.1 mph - N/A   Partly Cloudy
4:55 PM 66.2 °F 51.8 °F 60% 30.21 in 6.2 mi West 17.3 mph - N/A   Partly Cloudy
5:25 PM 66.2 °F 51.8 °F 60% 30.21 in 6.2 mi West 13.8 mph - N/A   Partly Cloudy
5:55 PM 64.4 °F 51.8 °F 64% 30.21 in 6.2 mi West 15.0 mph - N/A   Partly Cloudy
6:25 PM 64.4 °F 51.8 °F 64% 30.21 in 6.2 mi West 13.8 mph - N/A   Partly Cloudy
6:55 PM 64.4 °F 51.8 °F 64% 30.24 in 6.2 mi West 12.7 mph - N/A   Partly Cloudy
7:00 PM 64 °F 51 °F 54% 30.25 in 22 mi West 11.2 mph - -   Partly Cloudy
7:25 PM 64.4 °F 51.8 °F 64% 30.24 in 6.2 mi West 10.4 mph - N/A   Partly Cloudy
7:55 PM 62.6 °F 51.8 °F 68% 30.24 in 6.2 mi West 11.5 mph - N/A   Partly Cloudy
8:25 PM 62.6 °F 51.8 °F 68% 30.24 in 6.2 mi West 10.4 mph - N/A   Partly Cloudy
8:55 PM 60.8 °F 51.8 °F 72% 30.24 in 6.2 mi West 6.9 mph - N/A   Partly Cloudy
9:00 PM 60 °F 51 °F 64% 30.27 in 22 mi West 6.7 mph - -   Partly Cloudy
9:25 PM 59.0 °F 51.8 °F 77% 30.27 in 6.2 mi West 6.9 mph - N/A   Partly Cloudy
9:55 PM 59.0 °F 51.8 °F 77% 30.27 in 6.2 mi NW 3.5 mph - N/A   Partly Cloudy
10:00 PM 58 °F 52 °F 73% 30.29 in 17 mi NW 2.2 mph - -   Scattered Clouds
10:25 PM 59.0 °F 53.6 °F 82% 30.27 in - WNW 3.5 mph - N/A   Clear
11:00 PM 59 °F 52 °F 72% 30.29 in 19 mi South 2.2 mph - -   Partly Cloudy
11:25 PM 57.2 °F 51.8 °F 82% 30.27 in - Variable 2.3 mph - N/A   Clear
11:55 PM 57.2 °F 51.8 °F 82% 30.30 in - South 4.6 mph - N/A   Clear